Regional Weather Roundup
Issued by NWS

Home | Current Version | Previous Version | Graphics & Text | Print | Product List | Glossary On
Versions: 1 2 3 4 5 6 7 8 9 10 11 12 13 14 15 16 17 18 19 20 21 22 23 24 25 26 27 28 29 30 31 32 33 34 35 36 37 38 39 40 41 42 43 44 45 46 47 48 49 50
000
ASUS43 KFSD 280002
RWRSD

WEATHER ROUNDUP FOR SOUTH DAKOTA
NATIONAL WEATHER SERVICE SIOUX FALLS SD
700 PM CDT THU JUL 27 2017

NOTE: "FAIR" INDICATES FEW OR NO CLOUDS BELOW 12,000 FEET WITH NO
SIGNIFICANT WEATHER AND/OR OBSTRUCTIONS TO VISIBILITY.


SDZ001>005-009-010-012>017-280100-
NORTHWEST AND NORTH CENTRAL SOUTH DAKOTA

CITY           SKY/WX    TMP DP  RH WIND       PRES   REMARKS
BUFFALO          N/A     74  52  46 SE32G44   29.97S
FAITH            N/A     68  63  84 SW9       30.07S
MOBRIDGE       CLOUDY    81  62  52 E15       30.02F
$$

SDZ012>016-024>037-041>051-057-063-072>074-280100-
SOUTHWEST AND SOUTH CENTRAL SOUTH DAKOTA

CITY           SKY/WX    TMP DP  RH WIND       PRES   REMARKS
RAPID CTY ARPT CLOUDY    78  47  33 SE15      30.06S
PIERRE         CLOUDY    85  55  35 SE12      30.01F
CUSTER         CLOUDY    67  52  58 E14G25    30.15F
ELLSWORTH AFB  CLOUDY    79  48  34 N23       30.10R THUNDER
PHILIP         CLOUDY    86  53  32 SE15G24   30.03R
PINE RIDGE     CLOUDY    78  50  37 E13       30.04F
SPEARFISH      FAIR      63  57  82 SE8G28    30.10R
WINNER         FAIR      85  56  37 SE7       30.06S
$$

SDZ004>011-016>023-039-040-280100-
NORTHEAST SOUTH DAKOTA

CITY           SKY/WX    TMP DP  RH WIND       PRES   REMARKS
ABERDEEN       MOSUNNY   82  58  43 E3        30.05F
WATERTOWN      SUNNY     79  59  50 NE8       30.07S
BROOKINGS      SUNNY     79  61  53 NE8       30.07F
SISSETON         N/A     82  60  47 NE6       30.05F
$$

SDZ017-020-022-023-036>040-048>070-280100-
SOUTHEAST SOUTH DAKOTA

CITY           SKY/WX    TMP DP  RH WIND       PRES   REMARKS
SIOUX FALLS    MOSUNNY   81  63  54 NE12      30.05F
HURON          SUNNY     80  62  54 SE8       30.04F
CHAMBERLAIN    MOSUNNY   85  57  39 SE7       30.05S
MITCHELL       MOSUNNY   81  64  56 CALM      30.04F
YANKTON        SUNNY     81  62  52 NE8       30.04F
$$

ABBREVIATIONS USED IN REMARKS
   TC - TEMPERATURE IN CELSIUS
  WCI - WIND CHILL INDEX
   HX - HEAT INDEX
  VSB - VISIBILITY




USA.gov is the U.S. government's official web portal to all federal, state and local government web resources and services.